2019-07-09 00:04:40 r, 16.94m,0000000015Hz,0000031102c,0000000.067s, 035.1C,00002195
2019-07-09 00:14:40 r, 16.74m,0000000018Hz,0000025789c,0000000.056s, 035.1C,00002195
2019-07-09 00:24:40 r, 16.33m,0000000026Hz,0000017706c,0000000.038s, 035.1C,00002195
2019-07-09 00:34:40 r, 16.80m,0000000017Hz,0000027448c,0000000.060s, 035.1C,00002195
2019-07-09 00:44:40 r, 16.68m,0000000019Hz,0000024531c,0000000.053s, 035.1C,00002195
2019-07-09 00:54:40 r, 16.03m,0000000035Hz,0000013441c,0000000.029s, 035.1C,00002195
2019-07-09 01:04:40 r, 16.04m,0000000034Hz,0000013511c,0000000.029s, 035.1C,00002195
2019-07-09 01:14:40 r, 16.40m,0000000025Hz,0000019032c,0000000.041s, 035.1C,00002195
2019-07-09 01:24:40 r, 16.99m,0000000014Hz,0000032722c,0000000.071s, 035.1C,00002195
2019-07-09 01:34:40 r, 17.71m,0000000008Hz,0000063110c,0000000.137s, 035.1C,00002195
2019-07-09 01:44:40 r, 18.00m,0000000005Hz,0000082623c,0000000.179s, 035.1C,00002195
2019-07-09 01:54:40 r, 18.28m,0000000005Hz,0000106600c,0000000.231s, 034.8C,00002195
2019-07-09 02:04:40 r, 18.40m,0000000004Hz,0000118963c,0000000.258s, 034.4C,00002195
2019-07-09 02:14:40 r, 18.20m,0000000005Hz,0000098980c,0000000.215s, 034.4C,00002195
2019-07-09 02:24:40 r, 17.77m,0000000007Hz,0000066883c,0000000.145s, 034.1C,00002195
2019-07-09 02:34:40 r, 17.08m,0000000013Hz,0000035507c,0000000.077s, 034.1C,00002195
2019-07-09 02:44:40 r, 16.12m,0000000031Hz,0000014616c,0000000.032s, 033.8C,00002195
2019-07-09 02:54:40 r, 14.67m,0000000118Hz,0000003863c,0000000.008s, 033.8C,00002195
2019-07-09 03:04:40 r, 13.16m,0000000484Hz,0000000000c,0000000.000s, 033.8C,00002195
2019-07-09 03:14:40 r, 11.73m,0000001805Hz,0000000000c,0000000.000s, 033.5C,00002195
2019-07-09 03:24:40 r, 10.31m,0000006676Hz,0000000000c,0000000.000s, 033.5C,00002195
2019-07-09 03:34:40 r, 09.14m,0000019603Hz,0000000000c,0000000.000s, 033.5C,00002195
2019-07-09 03:44:40 r, 08.10m,0000051235Hz,0000000000c,0000000.000s, 033.5C,00002195
2019-07-09 03:54:40 r, 07.46m,0000092231Hz,0000000000c,0000000.000s, 033.5C,00002195
2019-07-09 04:04:40 r, 06.80m,0000170354Hz,0000000000c,0000000.000s, 033.5C,00002195
2019-07-09 04:14:40 r, 06.14m,0000312605Hz,0000000000c,0000000.000s, 033.5C,00002195
2019-07-09 04:24:40 r, 00.00m,0000433935Hz,0000000000c,0000000.000s, 033.8C,00002195
2019-07-09 04:34:40 r, 00.00m,0000564779Hz,0000000000c,0000000.000s, 033.8C,00002195
2019-07-09 04:44:40 r, 00.00m,0000564760Hz,0000000000c,0000000.000s, 034.1C,00002195
2019-07-09 04:54:40 r, 00.00m,0000564772Hz,0000000000c,0000000.000s, 034.4C,00002195
2019-07-09 05:04:40 r, 00.00m,0000564871Hz,0000000000c,0000000.000s, 034.8C,00002195
2019-07-09 05:14:40 r, 00.00m,0000564877Hz,0000000000c,0000000.000s, 035.1C,00002195
2019-07-09 05:24:40 r, 00.00m,0000564900Hz,0000000000c,0000000.000s, 035.4C,00002195
2019-07-09 05:34:40 r, 00.00m,0000564883Hz,0000000000c,0000000.000s, 035.4C,00002195
2019-07-09 05:44:40 r, 00.00m,0000565005Hz,0000000000c,0000000.000s, 036.0C,00002195
2019-07-09 05:54:40 r, 00.00m,0000565055Hz,0000000000c,0000000.000s, 036.4C,00002195
2019-07-09 06:04:40 r, 00.00m,0000565107Hz,0000000000c,0000000.000s, 037.0C,00002195
2019-07-09 06:14:40 r, 00.00m,0000565112Hz,0000000000c,0000000.000s, 037.3C,00002195
2019-07-09 06:24:40 r, 00.00m,0000565227Hz,0000000000c,0000000.000s, 037.7C,00002195
2019-07-09 06:34:40 r, 00.00m,0000565254Hz,0000000000c,0000000.000s, 038.3C,00002195
2019-07-09 06:44:40 r, 00.00m,0000565444Hz,0000000000c,0000000.000s, 039.0C,00002195
2019-07-09 06:54:40 r, 00.00m,0000565384Hz,0000000000c,0000000.000s, 039.6C,00002195
2019-07-09 07:04:40 r, 00.00m,0000565446Hz,0000000000c,0000000.000s, 039.9C,00002195
2019-07-09 07:14:40 r, 00.00m,0000565417Hz,0000000000c,0000000.000s, 040.6C,00002195
2019-07-09 07:24:40 r, 00.00m,0000565476Hz,0000000000c,0000000.000s, 040.9C,00002195
2019-07-09 07:34:40 r, 00.00m,0000565579Hz,0000000000c,0000000.000s, 041.9C,00002195
2019-07-09 07:44:40 r, 00.00m,0000565531Hz,0000000000c,0000000.000s, 042.5C,00002195
2019-07-09 09:39:11 r, 00.00m,0000565664Hz,0000000000c,0000000.000s, 042.8C,00002195
2019-07-09 09:49:11 r, 00.00m,0000565731Hz,0000000000c,0000000.000s, 043.8C,00002195
2019-07-09 09:59:11 r, 00.00m,0000565762Hz,0000000000c,0000000.000s, 045.1C,00002195
2019-07-09 10:09:11 r, 00.00m,0000565724Hz,0000000000c,0000000.000s, 044.8C,00002195
2019-07-09 10:19:11 r, 00.00m,0000565567Hz,0000000000c,0000000.000s, 043.1C,00002195
2019-07-09 10:29:11 r, 00.00m,0000565586Hz,0000000000c,0000000.000s, 043.1C,00002195
2019-07-09 10:39:11 r, 00.00m,0000565532Hz,0000000000c,0000000.000s, 043.1C,00002195
2019-07-09 10:49:11 r, 00.00m,0000565679Hz,0000000000c,0000000.000s, 042.8C,00002195
2019-07-09 10:59:11 r, 00.00m,0000565672Hz,0000000000c,0000000.000s, 043.1C,00002195
2019-07-09 11:09:11 r, 00.00m,0000565801Hz,0000000000c,0000000.000s, 043.8C,00002195
2019-07-09 11:19:11 r, 00.00m,0000565759Hz,0000000000c,0000000.000s, 044.4C,00002195
2019-07-09 11:29:11 r, 00.00m,0000565816Hz,0000000000c,0000000.000s, 044.8C,00002195
2019-07-09 11:39:11 r, 00.00m,0000565829Hz,0000000000c,0000000.000s, 044.8C,00002195
2019-07-09 11:49:11 r, 00.00m,0000565744Hz,0000000000c,0000000.000s, 045.1C,00002195
2019-07-09 11:59:11 r, 00.00m,0000565760Hz,0000000000c,0000000.000s, 045.1C,00002195
2019-07-09 12:09:11 r, 00.00m,0000565725Hz,0000000000c,0000000.000s, 045.1C,00002195
2019-07-09 12:19:11 r, 00.00m,0000565691Hz,0000000000c,0000000.000s, 044.8C,00002195
2019-07-09 12:29:11 r, 00.00m,0000565583Hz,0000000000c,0000000.000s, 043.8C,00002195
2019-07-09 12:39:11 r, 00.00m,0000565427Hz,0000000000c,0000000.000s, 041.9C,00002195
2019-07-09 12:49:11 r, 00.00m,0000565217Hz,0000000000c,0000000.000s, 039.6C,00002195
2019-07-09 12:59:11 r, 00.00m,0000565105Hz,0000000000c,0000000.000s, 038.3C,00002195
2019-07-09 13:09:11 r, 00.00m,0000565104Hz,0000000000c,0000000.000s, 037.7C,00002195
2019-07-09 13:19:11 r, 00.00m,0000565101Hz,0000000000c,0000000.000s, 037.7C,00002195
2019-07-09 13:29:11 r, 00.00m,0000565074Hz,0000000000c,0000000.000s, 038.0C,00002195
2019-07-09 13:39:11 r, 00.00m,0000565248Hz,0000000000c,0000000.000s, 039.0C,00002195
2019-07-09 13:49:11 r, 00.00m,0000565346Hz,0000000000c,0000000.000s, 039.9C,00002195
2019-07-09 13:59:11 r, 00.00m,0000565428Hz,0000000000c,0000000.000s, 040.6C,00002195
2019-07-09 14:09:11 r, 00.00m,0000565409Hz,0000000000c,0000000.000s, 040.6C,00002195
2019-07-09 14:19:11 r, 00.00m,0000565427Hz,0000000000c,0000000.000s, 040.9C,00002195
2019-07-09 14:29:11 r, 00.00m,0000565395Hz,0000000000c,0000000.000s, 040.2C,00002195
2019-07-09 14:39:11 r, 00.00m,0000565348Hz,0000000000c,0000000.000s, 039.9C,00002195
2019-07-09 14:49:11 r, 00.00m,0000565295Hz,0000000000c,0000000.000s, 039.9C,00002195
2019-07-09 14:59:11 r, 00.00m,0000565372Hz,0000000000c,0000000.000s, 040.2C,00002195
2019-07-09 15:09:11 r, 00.00m,0000565380Hz,0000000000c,0000000.000s, 039.9C,00002195
2019-07-09 15:19:11 r, 00.00m,0000565295Hz,0000000000c,0000000.000s, 039.3C,00002195
2019-07-09 15:29:11 r, 00.00m,0000565154Hz,0000000000c,0000000.000s, 039.0C,00002195
2019-07-09 15:39:11 r, 00.00m,0000565145Hz,0000000000c,0000000.000s, 038.0C,00002195
2019-07-09 15:49:11 r, 00.00m,0000565129Hz,0000000000c,0000000.000s, 037.7C,00002195
2019-07-09 15:59:11 r, 00.00m,0000565066Hz,0000000000c,0000000.000s, 037.7C,00002195
2019-07-09 16:09:11 r, 00.00m,0000565103Hz,0000000000c,0000000.000s, 038.0C,00002195
2019-07-09 16:19:11 r, 00.00m,0000565099Hz,0000000000c,0000000.000s, 037.3C,00002195
2019-07-09 16:29:11 r, 00.00m,0000565023Hz,0000000000c,0000000.000s, 036.4C,00002195
2019-07-09 16:39:11 r, 00.00m,0000565012Hz,0000000000c,0000000.000s, 035.7C,00002195
2019-07-09 16:49:11 r, 00.00m,0000565069Hz,0000000000c,0000000.000s, 036.0C,00002195
2019-07-09 16:59:11 r, 00.00m,0000565052Hz,0000000000c,0000000.000s, 036.0C,00002195
2019-07-09 17:09:11 r, 00.00m,0000564902Hz,0000000000c,0000000.000s, 035.7C,00002195
2019-07-09 17:19:11 r, 00.00m,0000564946Hz,0000000000c,0000000.000s, 035.4C,00002195
2019-07-09 17:29:11 r, 00.00m,0000565035Hz,0000000000c,0000000.000s, 035.4C,00002195
2019-07-09 17:39:11 r, 00.00m,0000564956Hz,0000000000c,0000000.000s, 035.1C,00002195
2019-07-09 17:49:11 r, 00.00m,0000564895Hz,0000000000c,0000000.000s, 035.1C,00002195
2019-07-09 17:59:12 r, 00.00m,0000564913Hz,0000000000c,0000000.000s, 034.8C,00002195
2019-07-09 18:09:11 r, 00.00m,0000564959Hz,0000000000c,0000000.000s, 034.8C,00002195
2019-07-09 18:19:12 r, 00.00m,0000564931Hz,0000000000c,0000000.000s, 034.4C,00002195
2019-07-09 18:29:11 r, 00.00m,0000564856Hz,0000000000c,0000000.000s, 034.4C,00002195
2019-07-09 18:39:12 r, 00.00m,0000564951Hz,0000000000c,0000000.000s, 034.8C,00002195
2019-07-09 18:49:11 r, 00.00m,0000564999Hz,0000000000c,0000000.000s, 034.8C,00002195
2019-07-09 18:59:12 r, 00.00m,0000564981Hz,0000000000c,0000000.000s, 034.8C,00002195
2019-07-09 19:09:12 r, 00.00m,0000565032Hz,0000000000c,0000000.000s, 035.1C,00002195
2019-07-09 19:19:12 r, 00.00m,0000565063Hz,0000000000c,0000000.000s, 035.1C,00002195
2019-07-09 19:29:12 r, 00.00m,0000565003Hz,0000000000c,0000000.000s, 035.1C,00002195
2019-07-09 19:39:12 r, 00.00m,0000564985Hz,0000000000c,0000000.000s, 035.4C,00002195
2019-07-09 19:49:12 r, 07.05m,0000134550Hz,0000000000c,0000000.000s, 035.1C,00002195
2019-07-09 19:59:12 r, 00.00m,0000565011Hz,0000000000c,0000000.000s, 035.1C,00002195
2019-07-09 20:09:12 r, 06.52m,0000219265Hz,0000000000c,0000000.000s, 035.1C,00002195
2019-07-09 20:19:12 r, 06.73m,0000180955Hz,0000000000c,0000000.000s, 034.8C,00002195
2019-07-09 20:29:12 r, 07.42m,0000095971Hz,0000000000c,0000000.000s, 034.4C,00002195
2019-07-09 20:39:12 r, 06.61m,0000202212Hz,0000000000c,0000000.000s, 034.1C,00002195
2019-07-09 20:49:12 r, 06.68m,0000189633Hz,0000000000c,0000000.000s, 033.5C,00002195
2019-07-09 20:59:12 r, 07.48m,0000090188Hz,0000000000c,0000000.000s, 033.5C,00002195
2019-07-09 21:09:12 r, 07.33m,0000104282Hz,0000000000c,0000000.000s, 033.1C,00002195
2019-07-09 21:19:12 r, 08.19m,0000047311Hz,0000000000c,0000000.000s, 033.1C,00002195
2019-07-09 21:29:12 r, 09.27m,0000017473Hz,0000000000c,0000000.000s, 033.1C,00002195
2019-07-09 21:39:12 r, 09.79m,0000010794Hz,0000000000c,0000000.000s, 033.1C,00002195
2019-07-09 21:49:12 r, 11.50m,0000002249Hz,0000000000c,0000000.000s, 033.1C,00002195
2019-07-09 21:59:12 r, 11.76m,0000001754Hz,0000000000c,0000000.000s, 032.8C,00002195
2019-07-09 22:09:12 r, 13.52m,0000000346Hz,0000000000c,0000000.000s, 032.8C,00002195
2019-07-09 22:19:12 r, 14.66m,0000000121Hz,0000003816c,0000000.008s, 032.8C,00002195
2019-07-09 22:29:12 r, 15.17m,0000000075Hz,0000006049c,0000000.013s, 032.8C,00002195
2019-07-09 22:39:12 r, 15.37m,0000000062Hz,0000007353c,0000000.016s, 032.8C,00002195
2019-07-09 22:49:12 r, 15.46m,0000000057Hz,0000007957c,0000000.017s, 032.8C,00002195
2019-07-09 22:59:12 r, 15.50m,0000000057Hz,0000008290c,0000000.018s, 032.8C,00002195
2019-07-09 23:09:12 r, 15.51m,0000000055Hz,0000008379c,0000000.018s, 032.5C,00002195
2019-07-09 23:19:12 r, 15.53m,0000000054Hz,0000008520c,0000000.018s, 032.5C,00002195
2019-07-09 23:29:12 r, 15.53m,0000000055Hz,0000008472c,0000000.018s, 032.5C,00002195
2019-07-09 23:39:12 r, 15.56m,0000000051Hz,0000008725c,0000000.019s, 032.5C,00002195
2019-07-09 23:49:12 r, 15.45m,0000000058Hz,0000007851c,0000000.017s, 032.5C,00002195
2019-07-09 23:59:12 r, 15.66m,0000000049Hz,0000009547c,0000000.021s, 032.5C,00002195
